Regional Weather Roundup
Issued by NWS Wilmington, NC

Home | Current Version | Previous Version | Text Only | Print | Product List | Glossary On
Versions: 1 2 3 4 5 6 7 8 9 10 11 12 13 14 15 16 17 18 19 20 21 22 23 24 25 26 27 28
000
ASUS42 KILM 280113
RWRILM
RWRILM
REGIONAL HOURLY WEATHER ROUNDUP
NATIONAL WEATHER SERVICE WILMINGTON NC
900 PM EDT SAT MAY 27 2017

NOTE: "FAIR" INDICATES FEW OR NO CLOUDS BELOW 12,000 FEET WITH NO
SIGNIFICANT WEATHER AND/OR OBSTRUCTIONS TO VISIBILITY.

...............WFO WILMINGTON COUNTY WARNING AREA...............

......COASTAL NC AND SC COUNTIES......

CITY           SKY/WX    TMP DP  RH WIND       PRES   REMARKS
WILMINGTON     CLEAR     77  68  73 SW10G17   29.89S
N MYRTLE BEACH CLEAR     77  72  84 SW13      29.90S
MYRTLE BEACH   NOT AVBL

......INLAND NC AND SC COUNTIES.......

CITY           SKY/WX    TMP DP  RH WIND       PRES   REMARKS
LUMBERTON      CLEAR     81  66  60 W7        29.89R
ELIZABETHTOWN  CLEAR     82  66  57 SW3       29.89R
WHITEVILLE     CLEAR     78  68  70 CALM      29.89R
FLORENCE       CLEAR     82  66  58 NW3       29.90R
DARLINGTON     CLEAR     80  67  64 W5        29.92R
KINGSTREE      FAIR      77  66  69 CALM      29.91S
HARTSVILLE     FAIR      77  64  65 CALM      29.91R
BENNETTSVILLE  FAIR      81  68  65 CALM      29.90R
CONWAY         FAIR      73  70  88 CALM      29.90S
GEORGETOWN     FAIR      75  70  83 SW5       29.93R
MARION         FAIR      79  66  65 CALM      29.90R

....................REST OF NORTH CAROLINA......................

.........EASTERN NC.........

CITY           SKY/WX    TMP DP  RH WIND       PRES   REMARKS
CAPE HATTERAS  CLEAR     76  71  85 SW12      29.90R
JACKSONVILLE   CLEAR     77  71  82 S5        29.89R
MOREHEAD CITY  PTCLDY    76  71  85 SW13      29.89S
KENANSVILLE    CLEAR     73  70  88 CALM      29.87S
NEW BERN       PTCLDY    77  71  82 S6        29.89R
ELIZABETH CITY CLOUDY    79  69  71 S6        29.85S

.........CENTRAL NC.........

CITY           SKY/WX    TMP DP  RH WIND       PRES   REMARKS
RALEIGH DURHAM MOCLDY    77  67  71 SW8       29.87S
ROCKY MOUNT    MOCLDY    75  69  81 CALM      29.85F
ROANOKE RAPIDS NOT AVBL
FAYETTEVILLE   CLEAR     84  66  54 W8        29.88R
HOFFMAN        CLEAR     78  67  68 SW8       29.89R

.........WESTERN NC.........

CITY           SKY/WX    TMP DP  RH WIND       PRES   REMARKS
CHARLOTTE      MOCLDY    78  66  66 S6        29.91S
GREENSBORO     CLOUDY    78  66  66 SW5       29.89R
HICKORY        NOT AVBL
BOONE          NOT AVBL
ASHEVILLE      NOT AVBL

.....................REST OF SOUTH CAROLINA.....................

.........EASTERN SC.........

CITY           SKY/WX    TMP DP  RH WIND       PRES   REMARKS
CHARLESTON     CLEAR     76  68  76 S7        29.93R
BEAUFORT MCAS  CLEAR     80  70  71 CALM      29.93R
HILTON HEAD    CLEAR     79  72  78 S9G16     29.94R

.........CENTRAL SC.........

CITY           SKY/WX    TMP DP  RH WIND       PRES   REMARKS
COLUMBIA       PTCLDY    81  63  54 W6        29.91S
ORANGEBURG     CLEAR     81  57  43 W8        29.93R
SUMTER SHAW    CLEAR     80  62  52 W6        29.90R

.........WESTERN SC.........

CITY           SKY/WX    TMP DP  RH WIND       PRES   REMARKS
GREENVILLE     NOT AVBL
ROCK HILL      CLOUDY    74  67  78 SW6       29.92R
ANDERSON       CLEAR     77  67  71 S3        29.92F
CLEMSON        NOT AVBL
GREENWOOD      CLEAR     76  64  66 SW7       29.94S


...................COASTAL AND OFFSHORE REPORTS..................

................LOCAL PIERS AND NC RESERVE................


STATION/POSITION TIME  SKY/WX   TEMP    WIND        PRES    VSBY
                                AIR SEA DIR/SP/G
                 (UTC)          (F)     (DEG/KT/KT) (MB)    (MI)
JOHNY MRCER PIER 0048            78 76  220/ 12/ 14 1011.3S
NC RESRV MASNBRO 2345            79     250/  6     1013.0
OCEAN CREST PIER NOT AVBL
SPRINGMAID  PIER 0048                               1012.1R


................COASTAL AND OFFSHORE BUOYS................


STATION/POSITION TIME  SKY/WX   TEMP    WIND        PRES    VSBY
                                AIR SEA DIR/SP/G
                 (UTC)          (F)     (DEG/KT/KT) (MB)    (MI)
DIMNDSHOAL 41025 0050            78 78  230/ 17/ 19 1012.1R
WVE H/P(F/S)=  3/ 7 SWL H/P/D(F/S/D)=  2/160/ 7

CAPE LOOKOUT     0100            76     220/ 11/ 15 1012.1S
ONSLOW BAY 41036 NOT AVBL
ONSLOW BAY 41064 0008            77 77  230/ 17/ 21 1012.6R
ONSLOW BAY 41159 0043               77                N/A
WVE H/P(F/S)=  5/ 5

MASNBO INL 41110 0059               75                N/A
WVE H/P(F/S)=  3/ 5

WILM HARBR 41108 0047               76                N/A
WVE H/P(F/S)=  4/ 5

27SE WRITB 41037 0008            77 77  220/ 16/ 21 1012.7R
FRYING PAN 41013 0100            77 75  220/ 16/ 17 1012.8
SUNST NRSH 41024 0008            76 75  230/ 14/ 19 1011.8F
CAPRS NRSH 41029 0008            82 77  230/ 14/ 19 1012.8R
EDISTO     41004 0050            77 75  210/ 12/ 16 1013.1R
WVE H/P(F/S)=  3/ 4 SWL H/P/D(F/S/D)=  2/150/ 7



..........OFFSHORE BUOYS BEYOND 100 NM OFFSHORE...........
.....IN A TRIANGLE---HAT TO BERMUDA TO BAHAMAS TO HAT.....


STATION/POSITION TIME  SKY/WX   TEMP    WIND        PRES    VSBY
                                AIR SEA DIR/SP/G
                 (UTC)          (F)     (DEG/KT/KT) (MB)    (MI)
150E HAT   41001 0100            76 76  240/ 14/ 16 1014.3
W BERMUDA  41048 0100            75 76  270/  8/ 10 1017.1
ATLANTIC S 41049 0050            77 78  210/  8/ 10 1020.1F
WVE H/P(F/S)=  4/10 SWL H/P/D(F/S/D)=  3/300/10

E BAHAMAS  41046 0100            80 81   90/  4/  6 1019.5
NE BAHAMAS 41047 0100            79 79  230/  8/  8 1018.0
120E CANVRL41010 0100            80 80  150/  8/ 10 1016.5

END




USA.gov is the U.S. government's official web portal to all federal, state and local government web resources and services.